STARLINK-1307, 45397

Orbit data source: Space-Track

STARLINK-1307, 45397 is a payload satellite owned by SpaceX/Seattle (US) in LEO that was launched on Wed, 18 Mar 2020 UTC via an FALCON 9 launch vehicle from the Air Force Eastern Test Range (AFETR). Payloads include a variety of satellites, spacecraft, and rockets equipped with specific instruments for various scientific and technological missions. These include communications satellites like Starlink; space stations such as the ISS; scientific satellites like the Hubble; Earth observation satellites from companies like Planet Labs, Umbra, and HawkEye 360; GPS; miniature CubeSats for education and research; and military/defense satellites.

Loading next visibility...
STARLINK-1307 details
Identifier
45397, 2020-019AP
Orbit
LEO
Last TLE update8 hours ago
Origin
Flag of USSpaceX/Seattle (US)
ManufacturerSpaceX/Seattle
MissionOperational Commercial Communications
Bus & MotorSTARLINK, Unknown motor
Mass260 kg wet, ~248 kg dry
Launch date (UTC)
2020-03-18 (5 years ago)
Launch vehicle
FALCON 9
Launch site
Air Force Eastern Test Range (AFETR)
Object type
Payload
Rocket body
Debris
Shape & HBRBox + 1 Pan, 8.86 m
Radar Cross Section13.562 m², Large (>1 m²)

Expand to show TLE details & history

TLE from 8 hours ago
0 STARLINK-1307
1 45397U 20019AP  24361.09659743  .00021925  00000-0  14840-2 0  9997
2 45397  53.0567 315.5396 0001611 102.4085 257.7085 15.06454944263723
Epoch: 2024-12-26T02:19Z
Definitive object data (Epoch: 2024-12-26T02:19:06.017Z)
Latitude
Longitude-174.31636°
Altitude548.16 km
Speed7.589 km/s
True Right ascension21h 02m 09s
True Declination0° 00' 00"
Sunlit
Object was in daylight at TLE epoch
Visualization TLE readout
Latitude-3.59991°
Longitude-178.49914°
Altitude548.756 km
Speed7.588 km/s
Apparent Right ascension21h 06m 41s
Apparent Declination-20° 59' 06"
Sunlit
Object is in daylight
Visualization observer readout
Local Sidereal Time09:36:44
Azimuth20.924° NNE
Elevation-70.012°
Doppler factor1
Orbital elements
Apogee altitude548.429 km
Perigee altitude546.198 km
Semi-major axis6,925.451 km
Eccentricity0.0001611
Inclination53.0567°
RAAN315.5396°
Arg. of periapsis102.4085°
True anomaly257.69046°
Mean anomaly257.7085°
Eccentric anomaly257.69948°
Mean motion3.76592 °/min
BSTAR0.001484
Orbital period95.59 mins
Loading maneuver chart data...
Loading historical data...
Loading historical data...
Loading historical data...
Loading historical data...
Loading historical data...
Loading historical data...
Loading historical data...

STARLINK-1307 Visibility forecast

Observer location: undefined°, undefined

Span
Click to sort rows by Start time (UTC) header in descending order
Start Az.
Max El. time (UTC)
Max El. Az.
Max El.
End time (UTC)
End Az.
6 mins2024-12-26 23:10:35.274Z193.793° SSW2024-12-26 23:13:35.274Z130.114° SE30.478°2024-12-26 23:16:35.274Z70.058° E
6 mins2024-12-27 00:50:35.274Z272.893° WNW2024-12-27 00:52:35.274Z314.444° NW29.344°2024-12-27 00:56:35.274Z35.603° NE
6 mins2024-12-27 05:52:35.274Z333.734° NNW2024-12-27 05:54:35.274Z22.127° NNE32.526°2024-12-27 05:58:35.274Z102.583° ESE
5 mins2024-12-27 07:32:35.274Z269.525° W2024-12-27 07:34:35.274Z218.998° SW26.356°2024-12-27 07:37:35.274Z169.033° S
|